KC7O Weather Reports


Display with metric or nautical units.
time (UTC)temp
F
wind
direction
speed
MPH
gust
MPH
rain 1hr
in
rain 24hr
in
rain mn
in
humidity
%
barometer
mb
20260505034433 58 267 0.0 2.0 0.00 0.00 0.00 77 1013.1
20260505033904 58 250 0.0 3.0 0.00 0.00 0.00 76 1013.1
20260505033405 58 281 1.0 3.0 0.00 0.00 0.00 75 1013.1
20260505032905 58 281 1.0 3.0 0.00 0.00 0.00 75 1013.0
20260505032355 58 273 1.0 3.0 0.00 0.00 0.00 74 1013.0
20260505031903 58 236 0.0 2.0 0.00 0.00 0.00 73 1013.0
20260505031352 59 249 1.0 2.0 0.00 0.00 0.00 73 1013.0
20260505030859 59 255 0.0 3.0 0.00 0.00 0.00 72 1012.9
20260505030407 59 276 1.0 4.0 0.00 0.00 0.00 72 1012.8
20260505025915 59 228 0.0 4.0 0.00 0.00 0.00 71 1012.9
20260505025421 59 261 1.0 4.0 0.00 0.00 0.00 71 1012.8
20260505024846 59 255 1.0 3.0 0.00 0.00 0.00 70 1012.8
20260505024355 59 266 1.0 4.0 0.00 0.00 0.00 70 1012.7
20260505023901 59 274 1.0 4.0 0.00 0.00 0.00 70 1012.8
20260505023351 59 277 0.0 3.0 0.00 0.00 0.00 70 1012.7
20260505022903 59 265 0.0 2.0 0.00 0.00 0.00 70 1012.6
20260505022353 59 251 0.0 3.0 0.00 0.00 0.00 71 1012.7
20260505021859 60 176 1.0 3.0 0.00 0.00 0.00 70 1012.6
20260505021406 60 285 1.0 3.0 0.00 0.00 0.00 70 1012.6
20260505020855 60 248 0.0 3.0 0.00 0.00 0.00 72 1012.6
20260505020402 60 246 1.0 3.0 0.00 0.00 0.00 72 1012.6
20260505015851 60 285 1.0 3.0 0.00 0.00 0.00 72 1012.5
20260505015359 60 271 1.0 3.0 0.00 0.00 0.00 72 1012.5
20260505014905 60 288 1.0 3.0 0.00 0.00 0.00 71 1012.5
20260505014413 60 278 2.0 3.0 0.00 0.00 0.00 70 1012.5
20260505013900 61 271 2.0 3.0 0.00 0.00 0.00 71 1012.6
20260505013348 61 288 1.0 4.0 0.00 0.00 0.00 70 1012.6
20260505012901 61 265 2.0 5.0 0.00 0.00 0.00 69 1012.6
20260505012348 61 268 1.0 7.0 0.00 0.00 0.00 68 1012.6
20260505011853 61 276 3.0 5.0 0.00 0.00 0.00 67 1012.6
20260505011400 62 271 1.0 5.0 0.00 0.00 0.00 67 1012.6
20260505010847 62 283 1.0 6.0 0.00 0.00 0.00 68 1012.6
20260505010358 62 278 1.0 6.0 0.00 0.00 0.00 68 1012.7
20260505005904 62 276 2.0 5.0 0.00 0.00 0.00 68 1012.7
20260505005353 62 227 2.0 6.0 0.00 0.00 0.00 69 1012.6
20260505004920 62 255 3.0 6.0 0.00 0.00 0.00 68 1012.6
20260505004346 62 181 2.0 5.0 0.00 0.00 0.00 67 1012.7
20260505003850 62 265 3.0 6.0 0.00 0.00 0.00 66 1012.7
20260505003401 63 274 2.0 6.0 0.00 0.00 0.00 66 1012.7
20260505002846 63 245 1.0 5.0 0.00 0.00 0.00 67 1012.6
20260505002351 63 275 3.0 5.0 0.00 0.00 0.00 66 1012.7
20260505001916 63 288 2.0 5.0 0.00 0.00 0.00 65 1012.7
20260505001422 64 278 3.0 5.0 0.00 0.00 0.00 65 1012.6
20260505000908 64 283 1.0 5.0 0.00 0.00 0.00 65 1012.5
20260505000355 63 288 1.0 7.0 0.00 0.00 0.00 64 1012.6
20260504235921 63 278 2.0 7.0 0.00 0.00 0.00 65 1012.5
20260504235408 63 267 2.0 4.0 0.00 0.00 0.00 65 1012.5
20260504234856 63 281 2.0 6.0 0.00 0.00 0.00 65 1012.5
20260504234405 63 281 2.0 6.0 0.00 0.00 0.00 65 1012.4
20260504233852 63 259 3.0 5.0 0.00 0.00 0.00 65 1012.4
20260504233359 64 250 3.0 6.0 0.00 0.00 0.00 65 1012.3
20260504232925 64 270 3.0 6.0 0.00 0.00 0.00 64 1012.3
20260504232357 64 252 2.0 5.0 0.00 0.00 0.00 64 1012.4
20260504231905 64 288 2.0 5.0 0.00 0.00 0.00 64 1012.4
20260504231353 64 185 2.0 7.0 0.00 0.00 0.00 65 1012.4
20260504230902 64 288 3.0 7.0 0.00 0.00 0.00 65 1012.4
20260504230352 64 257 3.0 6.0 0.00 0.00 0.00 63 1012.6
20260504225858 65 272 3.0 6.0 0.00 0.00 0.00 63 1012.6
20260504225348 65 262 3.0 6.0 0.00 0.00 0.00 61 1012.7
20260504224856 65 225 2.0 6.0 0.00 0.00 0.00 62 1012.6
20260504224401 64 255 2.0 8.0 0.00 0.00 0.00 62 1012.7
20260504223848 65 140 2.0 8.0 0.00 0.00 0.00 62 1012.8
20260504223357 65 304 2.0 6.0 0.00 0.00 0.00 62 1012.7
20260504222849 65 293 3.0 6.0 0.00 0.00 0.00 60 1012.9
20260504222356 65 286 3.0 6.0 0.00 0.00 0.00 59 1012.9
20260504221901 65 275 3.0 6.0 0.00 0.00 0.00 59 1013.0
20260504221350 66 302 3.0 5.0 0.00 0.00 0.00 58 1013.0
20260504220857 65 353 2.0 5.0 0.00 0.00 0.00 59 1013.1
20260504220405 65 291 3.0 6.0 0.00 0.00 0.00 58 1013.1
20260504215854 65 264 3.0 6.0 0.00 0.00 0.00 59 1013.1
20260504215402 65 238 3.0 7.0 0.00 0.00 0.00 59 1013.2
20260504214850 65 285 3.0 9.0 0.00 0.00 0.00 60 1013.3
20260504214359 65 280 4.0 9.0 0.00 0.00 0.00 59 1013.4
20260504213851 66 291 3.0 7.0 0.00 0.00 0.00 57 1013.3
20260504213400 66 208 3.0 9.0 0.00 0.00 0.00 56 1013.3
20260504212847 66 249 4.0 9.0 0.00 0.00 0.00 56 1013.2
20260504212355 66 245 2.0 4.0 0.00 0.00 0.00 55 1013.3
20260504211921 66 284 1.0 3.0 0.00 0.00 0.00 58 1013.3
20260504211350 65 278 1.0 4.0 0.00 0.00 0.00 58 1013.3
20260504210856 66 269 2.0 4.0 0.00 0.00 0.00 57 1013.3
20260504210403 65 154 0.0 0.0 0.00 0.00 0.00 59 1013.3
20260504205851 65 117 0.0 0.0 0.00 0.00 0.00 58 1013.4
20260504205401 65 266 0.0 0.0 0.00 0.00 0.00 58 1013.5
20260504204853 65 49 0.0 2.0 0.00 0.00 0.00 60 1013.5
20260504204359 65 68 1.0 3.0 0.00 0.00 0.00 59 1013.7
20260504203904 65 294 0.0 3.0 0.00 0.00 0.00 60 1013.6
20260504203350 65 297 0.0 5.0 0.00 0.00 0.00 60 1013.6
20260504202857 65 284 1.0 5.0 0.00 0.00 0.00 59 1013.5
20260504202402 65 136 1.0 4.0 0.00 0.00 0.00 59 1013.6
20260504201847 65 177 0.0 4.0 0.00 0.00 0.00 59 1013.7
20260504201354 65 174 1.0 4.0 0.00 0.00 0.00 59 1013.8
20260504200857 64 197 3.0 4.0 0.00 0.00 0.00 58 1013.8
20260504200401 65 177 2.0 5.0 0.00 0.00 0.00 57 1013.8
20260504195854 64 255 2.0 5.0 0.00 0.00 0.00 59 1013.8
20260504195401 64 255 1.0 3.0 0.00 0.00 0.00 62 1013.9
20260504194850 63 332 0.0 3.0 0.00 0.00 0.00 62 1013.9
20260504194357 63 302 0.0 2.0 0.00 0.00 0.00 64 1013.9
20260504193905 62 56 0.0 3.0 0.00 0.00 0.00 65 1013.9
20260504193352 62 269 1.0 4.0 0.00 0.00 0.00 65 1014.0
20260504192901 62 225 1.0 4.0 0.00 0.00 0.00 65 1014.0
20260504192349 62 287 1.0 2.0 0.00 0.00 0.00 63 1014.0
20260504191858 62 287 0.0 1.0 0.00 0.00 0.00 62 1013.8
20260504191349 62 117 0.0 0.0 0.00 0.00 0.00 61 1013.8
20260504190855 62 116 0.0 0.0 0.00 0.00 0.00 61 1013.9
20260504190401 63 333 0.0 0.0 0.00 0.00 0.00 61 1014.0
20260504185848 62 334 0.0 0.0 0.00 0.04 0.00 61 1013.9
20260504185359 62 333 0.0 1.0 0.00 0.04 0.00 60 1014.0
20260504184909 63 243 0.0 1.0 0.00 0.04 0.00 61 1014.1
20260504184359 63 233 0.0 2.0 0.00 0.04 0.00 61 1014.0
20260504183846 63 162 0.0 2.0 0.00 0.04 0.00 62 1014.0
20260504183416 63 259 0.0 1.0 0.00 0.04 0.00 62 1014.1
20260504182902 63 149 0.0 0.0 0.00 0.04 0.00 62 1014.1
20260504182352 63 148 0.0 4.0 0.00 0.04 0.00 62 1014.0
20260504181920 63 86 0.0 4.0 0.00 0.04 0.00 62 1014.1
20260504181353 63 212 0.0 2.0 0.00 0.04 0.00 64 1014.1
20260504180921 63 217 0.0 3.0 0.00 0.04 0.00 66 1014.1
20260504180346 62 160 1.0 3.0 0.00 0.04 0.00 66 1014.2
20260504175358 62 130 2.0 5.0 0.00 0.08 0.00 65 1014.1
20260504174904 63 151 2.0 3.0 0.00 0.08 0.00 62 1014.1
20260504174429 63 170 1.0 4.0 0.00 0.08 0.00 62 1013.9
20260504173852 63 125 1.0 4.0 0.00 0.08 0.00 64 1013.9
20260504173359 63 140 1.0 4.0 0.00 0.08 0.00 64 1014.0
20260504172346 62 150 1.0 4.0 0.00 0.08 0.00 68 1014.0
20260504171853 62 162 3.0 5.0 0.00 0.08 0.00 67 1013.9
20260504170900 63 156 1.0 4.0 0.00 0.08 0.00 68 1013.9
20260504170350 62 162 1.0 4.0 0.00 0.08 0.00 68 1013.9
20260504160346 60 158 0.0 3.0 0.00 0.09 0.00 79 1013.6
20260504150919 57 162 0.0 2.0 0.00 0.09 0.00 77 1013.3
20260504150346 57 148 0.0 4.0 0.00 0.09 0.00 78 1013.3
20260504140851 54 131 0.0 0.0 0.00 0.09 0.00 86 1013.1
20260504140400 54 131 0.0 0.0 0.00 0.09 0.00 86 1013.0
20260504130415 53 93 0.0 0.0 0.00 0.09 0.00 87 1013.4
20260504110408 51 247 0.0 0.0 0.00 0.09 0.00 90 1012.5
20260504100415 52 247 0.0 0.0 0.00 0.09 0.00 88 1012.5
20260504081846 56 247 0.0 0.0 0.00 0.09 0.00 80 1013.9
20260504081353 56 247 0.0 0.0 0.00 0.09 0.00 80 1013.6
20260504080900 56 247 0.0 0.0 0.00 0.09 0.00 80 1013.7
20260504080348 56 247 0.0 0.0 0.00 0.09 0.00 80 1013.6
20260504070348 56 240 0.0 0.0 0.00 0.09 0.00 79 1013.6
20260504050409 57 240 0.0 0.0 0.00 0.09 0.09 77 1013.1
20260504045917 57 240 0.0 0.0 0.00 0.09 0.09 77 1013.1
20260504045421 58 240 0.0 0.0 0.00 0.09 0.09 77 1013.0
20260504044847 58 240 0.0 0.0 0.00 0.09 0.09 77 1013.1
20260504044355 58 240 0.0 0.0 0.00 0.09 0.09 77 1013.0
20260504043902 58 240 0.0 1.0 0.00 0.09 0.09 77 1013.2
20260504043404 58 171 0.0 1.0 0.00 0.09 0.09 76 1013.1
20260504042849 58 245 0.0 1.0 0.00 0.09 0.09 76 1013.2
20260504042355 58 257 0.0 1.0 0.00 0.09 0.09 75 1013.3
20260504041918 58 232 0.0 0.0 0.00 0.09 0.09 74 1013.0
20260504041404 58 243 0.0 0.0 0.00 0.09 0.09 74 1012.9
20260504040847 58 243 0.0 0.0 0.00 0.09 0.09 74 1012.9
20260504040412 58 243 0.0 1.0 0.00 0.09 0.09 73 1012.8
20260504035857 58 243 0.0 1.0 0.00 0.09 0.09 73 1012.8
20260504035404 58 264 0.0 1.0 0.00 0.09 0.09 73 1012.6
20260504034853 58 264 0.0 1.0 0.00 0.09 0.09 73 1012.7